Location: Eaton
(41.3139°N, 82.0207°W)
Time: 13:31:52
(UTC+00:00)

Cosmos 468 Rocket - Pass Details

Date: 17 June 2021
Orbit: 743 x 780 km, 74.0° (Epoch: 30 July)

Event Time Altitude Azimuth Distance (km) Brightness Sun altitude
Exits shadow 06:15:58 48° 125° (SE) 979 4.3 -24.4°
Maximum altitude 06:16:29 50° 104° (ESE) 955 4.4 -24.4°
Drops below altitude 10° 06:21:30 10° 30° (NNE) 2,295 7.4 -24.2°
Sets 06:23:56 0° 25° (NNE) 3,231 8.6 -24.1°
